RH
50 52 54 56 58 58 59 61 62 65 63 66 69 71 74 72 73 74 76 76 74 80 82 83 83 81 84 90 88 90 93 94 93 84 79 77 80 78 81 81 80 80 89
52 55 56 59 60 59 61 62 66 64 64 66 67 72 76 77 76 75 82 74 83 85 89 85 83 82 86 86 90 86 88 85 86 90 82 78 80 81 82 85 80 82 93
48 50 55 61 61 60 62 63 64 63 63 64 69 75 80 81 78 85 73 80 86 88 86 88 90 89 88 91 91 90 85 82 87 89 85 81 82 85 85 86 81 81 88
47 49 52 59 61 60 62 64 63 61 61 63 69 75 80 77 78 80 78 84 88 82 92 88 89 91 91 96 95 91 89 92 86 85 84 80 80 83 86 89 83 76 81
45 48 50 56 56 56 59 61 58 59 58 59 62 74 76 74 90 83 81 84 86 90 91 79 85 84 88 98 95 95 94 92 89 85 84 82 80 82 89 94 85 69 77
44 47 50 53 52 52 54 53 52 53 54 54 55 65 70 62 92 83 81 85 88 81 86 79 82 86 90 88 89 85 92 98 95 92 88 86 80 84 91 97 98 86 91
45 45 48 50 50 48 49 48 50 50 49 49 50 60 60 56 75 82 79 86 73 75 76 79 84 83 89 92 88 88 88 91 97 98 95 91 92 91 99 97 97 97 85
46 46 47 49 47 46 48 48 49 48 47 46 46 50 51 51 68 81 84 74 67 68 71 73 85 88 89 84 94 91 90 90 96 98 98 98 100 99 100 100 99 99 93
47 48 49 50 47 46 47 48 47 46 45 45 46 49 49 50 62 79 82 75 74 73 69 71 77 90 88 84 94 91 89 86 94 98 97 97 96 96 98 100 97 98 100
51 52 50 49 46 46 49 47 47 45 44 45 49 50 50 53 60 79 83 82 78 78 73 71 73 85 86 86 92 94 92 91 98 96 96 97 96 97 97 100 100 98 98
53 51 49 47 46 45 48 46 47 46 48 50 55 52 52 57 64 83 78 84 87 90 81 84 78 82 88 83 84 88 93 92 95 96 96 96 96 97 98 99 98 100 99
53 48 48 51 51 49 51 50 52 53 55 56 59 59 60 62 72 88 78 85 83 88 84 88 82 91 83 83 87 82 83 92 89 91 95 94 95 96 98 98 96 98 100
57 58 58 62 62 60 60 61 63 68 64 64 66 73 73 72 77 84 80 82 84 87 86 86 90 88 79 82 80 79 81 86 89 88 90 93 96 97 96 97 97 99 100
81 85 82 83 80 76 72 70 71 84 76 73 78 79 83 78 83 83 90 88 85 86 83 88 91 85 79 79 79 78 80 83 86 89 91 95 96 96 96 98 97 98 99
81 84 85 81 80 78 75 82 78 84 84 76 82 84 89 86 88 87 92 93 92 92 86 88 82 82 81 80 80 78 80 82 85 88 90 90 94 95 95 95 97 97 97
66 72 77 77 77 76 74 70 85 94 94 92 88 79 83 86 83 84 84 83 85 82 84 83 86 85 84 83 85 85 83 85 88 89 90 91 92 92 93 91 88 88 89
77 76 72 76 77 75 74 74 73 70 72 79 92 84 85 80 82 87 84 79 84 80 84 86 86 88 88 86 86 86 88 87 88 89 91 91 92 90 89 87 87 87 86
88 82 80 78 79 78 77 76 75 73 74 74 75 82 93 81 85 83 81 84 81 81 83 89 90 90 88 88 89 89 90 89 89 90 90 92 93 92 90 88 88 91 91
84 82 84 81 79 79 75 73 73 72 72 72 71 74 89 81 86 82 84 86 88 85 87 88 92 93 94 92 92 92 92 92 92 91 90 92 93 94 91 89 90 87 90
87 84 82 74 72 71 70 70 68 69 70 70 72 84 84 77 82 83 86 89 90 90 91 90 92 92 94 93 93 93 91 90 91 90 92 93 94 94 93 93 92 94 91
68 70 71 71 67 67 68 68 69 69 68 68 70 82 91 79 90 84 89 92 90 89 90 90 92 92 92 93 94 94 93 91 92 92 94 94 94 94 94 92 90 91 91
65 65 66 69 68 70 71 71 68 70 70 69 71 75 88 84 83 84 89 89 90 93 93 93 91 91 93 95 96 95 94 94 95 96 96 96 95 94 94 92 90 89 90
67 72 71 64 70 70 69 71 70 74 69 69 73 78 80 83 86 86 87 92 92 93 93 93 92 94 93 96 94 96 96 97 100 99 99 98 97 96 94 93 92 92 89
69 74 69 64 70 75 75 73 74 72 74 76 79 79 81 85 87 89 91 90 91 92 92 92 93 94 94 94 94 96 96 98 97 100 99 99 98 96 94 92 92 92 93
76 77 75 73 74 76 77 75 75 80 79 79 84 81 86 89 85 87 92 91 94 93 89 94 94 94 95 94 98 98 94 96 96 97 98 100 99 93 94 94 92 94 90
76 73 75 78 78 81 78 78 77 80 82 83 83 86 89 90 86 92 90 92 95 92 95 94 92 95 97 94 98 90 94 94 94 95 98 100 96 96 96 93 92 95 90
Wind_Speed
3 5 7 7 8 9 11 12 13 15 16 16 18 19 20 20 20 22 21 22 25 25 26 27 29 28 27 24 25 26 27 27 17 31 36 41 43 42 46 47 44 44 49
3 5 6 7 8 8 10 12 13 15 16 16 17 18 18 19 20 21 19 24 26 27 28 29 28 27 27 26 24 26 28 30 30 22 35 39 44 39 45 47 46 43 43
3 3 4 5 7 9 11 13 14 15 16 16 17 18 18 19 20 17 22 26 27 28 28 27 26 26 26 25 26 26 28 31 31 32 34 36 43 37 40 44 43 43 43
1 3 3 5 7 9 11 13 14 15 15 16 16 17 17 19 19 18 25 29 29 29 26 25 26 25 27 28 26 28 28 33 32 32 33 33 34 34 37 40 35 38 39
1 2 3 5 7 9 10 12 13 14 15 15 16 15 18 19 13 20 26 30 31 30 24 26 25 26 26 25 28 31 33 33 32 29 28 29 28 28 26 36 33 34 38
1 2 4 6 7 9 11 12 14 15 15 16 16 14 18 20 13 20 27 31 32 29 24 27 26 24 24 27 29 32 33 33 32 29 28 21 29 29 32 30 35 19 16
0 2 4 6 8 9 11 13 14 15 16 16 17 16 19 20 18 22 27 32 29 26 26 28 25 25 26 29 35 34 32 30 31 33 31 29 32 32 34 35 33 29 20
1 2 5 6 8 10 11 13 14 15 16 17 18 19 19 20 20 23 28 28 27 27 28 28 24 25 25 36 36 34 32 30 30 33 35 35 32 33 33 36 40 33 33
2 3 5 6 9 10 11 13 13 15 16 17 17 19 20 21 22 24 28 29 27 29 29 29 26 23 30 36 35 32 32 32 33 34 34 31 29 30 27 32 21 10 4
3 3 5 6 8 9 11 12 13 15 15 17 18 19 19 21 23 24 28 29 28 30 29 29 27 27 33 33 32 29 30 34 37 38 36 31 31 29 28 27 26 9 7
2 3 5 7 8 9 11 11 14 14 16 17 18 20 20 21 23 23 29 29 29 30 29 28 30 31 33 31 29 26 30 33 32 30 27 26 27 27 28 32 33 25 19
3 3 5 7 8 9 11 12 14 15 15 18 19 20 21 23 23 23 29 29 31 29 30 29 32 33 32 30 26 29 31 26 27 26 25 27 30 32 33 36 33 28 11
4 5 6 6 8 9 11 12 13 14 15 17 19 20 22 24 24 26 30 30 30 30 28 33 32 28 29 27 27 28 28 27 28 28 27 26 29 33 35 33 31 27 13
4 5 5 5 8 8 9 10 11 11 14 17 18 20 22 24 24 30 30 30 31 28 32 32 26 25 26 26 27 27 27 26 27 28 30 29 30 33 28 28 27 27 14
4 3 3 4 6 8 8 8 9 9 9 13 15 18 22 23 26 30 29 30 30 27 32 25 25 26 26 26 27 28 28 29 27 27 29 29 28 27 29 28 26 23 16
3 2 3 4 6 7 9 10 7 8 8 8 10 15 19 21 27 27 27 28 26 25 24 23 24 25 25 26 27 28 28 30 30 29 26 27 26 26 27 25 25 21 17
3 2 2 3 5 7 8 10 12 13 13 11 12 15 17 24 25 25 25 26 22 23 21 23 23 24 25 26 26 27 28 30 30 29 28 28 27 27 25 22 22 19 18
2 2 2 3 4 6 7 9 11 13 15 16 15 16 16 24 23 22 24 22 22 22 22 23 23 24 26 27 27 27 28 28 29 29 28 28 27 26 25 24 24 23 22
1 1 2 3 3 5 7 9 10 12 14 15 17 17 18 24 21 20 21 20 21 22 22 23 24 25 25 26 28 28 29 28 28 29 29 29 29 28 27 26 24 24 21
2 1 2 4 4 5 7 9 11 12 14 15 16 18 18 24 21 21 21 20 20 21 22 23 24 24 25 26 28 29 29 29 30 30 29 30 29 28 26 26 25 23 21
3 3 2 4 5 6 7 9 11 12 14 15 16 16 14 19 19 20 20 20 21 22 22 23 24 24 24 26 27 28 28 29 29 31 32 31 32 30 28 25 23 22 22
3 3 3 4 5 6 8 9 11 13 14 16 17 17 16 17 18 20 19 20 20 20 21 22 22 23 22 25 27 27 27 29 30 32 32 31 30 28 27 27 25 24 22
3 3 4 5 6 7 9 10 12 13 15 16 17 18 18 18 19 19 20 19 20 20 21 21 22 23 22 25 26 24 27 28 31 32 32 32 31 28 27 26 25 24 23
3 4 5 5 6 8 9 11 12 13 14 15 16 17 18 19 19 20 19 20 20 20 22 22 22 22 25 26 26 23 27 30 31 30 30 30 29 27 27 25 24 24 23
4 4 5 7 8 9 11 13 14 14 15 16 17 18 18 19 20 21 20 21 20 21 24 23 22 24 24 26 24 25 29 31 32 32 31 27 26 27 25 24 24 23 22
5 5 7 8 10 11 13 14 16 16 17 18 17 19 19 19 21 21 21 22 21 25 24 23 24 23 24 24 23 29 30 32 32 33 31 26 25 26 26 26 25 23 21
Wind_Direction
1 353 349 340 336 336 333 332 332 328 330 331 327 328 326 329 327 326 328 325 323 319 315 312 308 307 305 305 302 298 293 292 290 293 289 294 291 290 290 284 282 282 235
4 346 342 335 334 342 336 334 334 329 331 330 329 329 325 328 327 329 333 326 323 320 315 313 310 310 308 306 305 303 301 299 294 295 296 296 290 291 289 286 275 275 244
346 336 343 329 336 341 339 336 333 331 331 331 332 330 329 329 325 331 334 328 322 319 316 313 312 311 308 307 309 307 308 302 299 296 296 291 288 291 295 286 272 272 253
338 343 337 337 339 340 338 333 331 330 329 332 332 330 331 327 328 336 332 328 324 319 315 317 315 315 312 311 315 313 310 308 305 298 293 292 289 298 295 277 274 269 258
17 339 338 342 342 340 335 331 331 330 329 331 332 334 334 329 345 344 339 329 323 317 317 322 318 316 313 318 320 315 314 308 305 301 297 296 295 303 303 299 276 261 263
30 343 350 344 347 340 336 334 332 330 331 332 333 342 332 332 355 347 341 331 321 319 322 325 323 322 322 320 318 313 307 306 302 300 300 296 296 300 306 300 298 260 263
26 359 354 352 344 342 340 336 334 333 333 333 335 345 329 332 352 347 342 327 325 325 329 326 325 327 327 330 323 319 314 310 306 301 297 297 299 300 305 303 288 280 252
68 3 1 350 345 345 340 338 335 336 334 335 335 337 330 335 352 349 341 335 330 330 330 326 328 330 333 332 326 322 320 318 317 310 302 295 300 305 301 295 288 281 285
57 14 -0 352 348 342 341 337 336 335 336 336 337 334 334 333 349 347 342 339 333 331 329 328 329 333 336 332 327 325 322 323 324 318 313 313 319 313 311 318 319 329 299
48 12 358 355 347 344 338 336 337 335 336 335 338 334 338 339 343 346 344 339 336 333 329 326 329 333 333 331 328 327 327 328 329 326 327 332 328 320 336 333 328 323 315
59 21 7 359 352 343 338 340 342 340 339 339 337 337 338 341 340 344 343 341 338 331 328 326 329 328 331 330 330 330 328 330 329 329 327 324 325 331 343 341 340 337 300
65 36 19 7 356 347 345 349 348 345 342 340 339 336 336 336 340 343 341 339 336 333 326 328 324 326 332 330 332 335 337 335 334 332 335 341 341 342 343 346 341 336 341
69 37 22 9 358 358 353 355 351 348 345 342 340 337 336 335 338 342 338 337 337 333 329 326 321 330 335 336 340 341 343 346 342 341 342 345 341 337 343 343 335 348 14
78 47 19 7 2 4 356 354 348 349 347 342 339 337 334 335 340 341 338 338 338 335 334 326 333 339 341 342 343 345 346 350 348 342 339 342 345 345 346 347 340 343 340
92 52 18 3 3 357 356 346 342 344 337 339 335 334 335 335 336 334 335 338 335 335 330 335 343 345 345 346 346 346 345 348 349 347 341 344 347 347 342 344 345 353 358
136 92 31 3 357 357 350 346 352 350 329 318 326 335 334 333 334 335 336 337 336 340 340 344 345 346 345 345 345 345 346 346 346 344 345 347 344 345 344 349 353 353 357
104 60 26 359 352 350 350 343 335 335 335 335 339 336 339 337 337 338 340 339 341 346 348 345 344 345 343 344 345 345 343 342 343 345 346 347 345 343 345 349 347 353 357
99 66 7 343 343 345 344 337 331 331 329 331 335 340 346 341 339 342 344 344 348 351 349 345 343 343 342 342 343 342 341 342 343 345 346 345 344 344 344 348 349 353 354
124 35 323 313 324 328 331 329 327 327 328 328 331 335 343 342 338 345 348 349 346 346 345 343 342 341 342 341 341 340 341 343 343 346 345 345 344 345 343 343 345 348 347
195 297 296 299 311 323 326 324 326 327 326 329 331 336 337 341 340 344 345 345 344 342 341 340 340 340 342 342 341 340 341 343 343 346 344 343 343 342 339 341 343 341 345
218 235 276 282 312 319 321 320 322 323 322 325 328 332 342 332 333 336 338 341 340 339 338 337 338 338 341 342 341 339 340 339 343 342 340 340 341 337 336 338 337 338 337
229 261 279 294 306 310 320 310 318 318 319 322 322 324 330 328 330 331 333 336 336 336 334 333 334 336 338 341 339 338 340 339 342 339 336 335 335 331 331 335 335 335 335
232 268 283 291 303 310 303 315 315 314 318 319 320 321 325 326 326 326 328 330 332 333 334 333 332 332 335 338 338 338 341 342 338 335 333 331 329 326 332 332 333 333 335
228 262 284 295 300 308 306 315 309 312 315 317 317 318 320 322 323 322 323 326 327 329 330 329 330 330 332 335 334 338 339 338 338 335 333 328 320 327 330 330 329 330 326
230 259 278 292 299 303 305 305 310 310 311 312 313 314 315 317 319 319 322 322 322 326 326 326 327 328 330 330 331 338 337 338 338 338 334 328 324 331 330 329 329 323 325
239 260 280 292 295 298 303 306 307 307 306 307 310 310 313 315 315 317 319 319 320 323 319 322 323 325 327 329 331 334 336 338 338 339 338 332 334 331 332 331 327 325 323